Regional Weather Roundup
Issued by NWS

Home | Current Version | Previous Version | Graphics & Text | Print | Product List | Glossary On
Versions: 1 2 3 4 5 6 7 8 9 10 11 12 13 14 15 16 17 18 19 20 21 22 23 24 25 26 27
000
ASUS45 KBOU 190610
RWRCO

WEATHER ROUNDUP FOR COLORADO
NATIONAL WEATHER SERVICE DENVER/BOULDER CO
1100 PM MST SAT NOV 18 2017

NOTE: "FAIR" INDICATES FEW OR NO CLOUDS BELOW 12000 FEET WITH NO
SIGNIFICANT WEATHER AND/OR OBSTRUCTIONS TO VISIBILITY.

COZ001>005-013-030-031-190700-
...NORTHWEST COLORADO...

CITY           SKY/WX    TMP DP  RH WIND       PRES   REMARKS
CRAIG          FAIR      13   7  77 E3        30.38S
HAYDEN         FAIR      16  10  77 E13       30.39S WCI   2
MEEKER         FAIR      17  11  77 MISG      30.38F
RABBIT EARS PA FAIR      14  10  85 W5        30.32S WCI   6
STEAMBOAT SPGS FAIR      12   9  87 CALM      30.38S
WALDEN         FAIR       9   1  72 SE9       30.33F WCI  -5
$$

COZ006>008-011-190700-
...WEST CENTRAL VALLEYS...

CITY           SKY/WX    TMP DP  RH WIND       PRES   REMARKS
GRAND JUNCTION FAIR      21  16  81 SE3       30.40S
MONTROSE       FAIR      24  19  81 SE9       30.43S WCI  14
EAGLE          FAIR      18  14  84 E6        30.44R WCI  10
RIFLE          FAIR      23  18  81 SE3       30.43S
DELTA          FAIR      26  18  70 E6        30.43S WCI  20
NUCLA          FAIR      25  14  63 E9        30.43R WCI  15
$$

COZ017>023-064>068-190700-
...SOUTHWEST COLORADO...

CITY           SKY/WX    TMP DP  RH WIND       PRES   REMARKS
DURANGO        FAIR      21  12  68 N6        30.38R WCI  13
CORTEZ         FAIR      17   9  70 E7        30.39S WCI   8
PAGOSA SPRINGS FAIR      24  15  69 CALM      30.38S
TELLURIDE      FAIR      23   9  55 SE8       30.40S WCI  13
WOLF CREEK PAS FAIR      23  -8  25 SW6       30.45S WCI  16
$$

COZ009-010-012-014-032>034-037-058>063-190700-
...CENTRAL COLORADO...

CITY           SKY/WX    TMP DP  RH WIND       PRES   REMARKS
ASPEN          FAIR      12   6  77 CALM      30.37R
BUENA VISTA    FAIR      23   9  55 NW3       30.34R
COPPER MTN     FAIR      23   0  36 MISG      30.34S
BERTHOUD PASS  FAIR      12   1  62 NW41G48   30.24S WCI -12
COTTONWOOD PAS FAIR      32   5  32 SE12      30.32R WCI  23
GUNNISON       FAIR      12   9  87 E3        30.44R
KREMMLING      FAIR      19  12  73 CALM      30.41S
LEADVILLE      FAIR       5  -1  76 NE9       30.32S WCI  -9
MONARCH PASS   FAIR      12   5  73 W32       30.43S WCI -10
SALIDA         FAIR      31  11  43 N6        30.39S WCI  25
SUNLIGHT       FAIR      18   1  49 SW9       30.40S WCI   6
WILKERSON PASS FAIR      23  -6  28 W5        30.35S WCI  17
$$

COZ069>075-190700-
...SAN LUIS VALLEY/SANGRE DE CRISTO MOUNTAINS...

CITY           SKY/WX    TMP DP  RH WIND       PRES   REMARKS
ALAMOSA        FAIR      16   9  74 NE5       30.37R WCI   9
DEL NORTE      FAIR      19  10  68 W10       30.38R WCI   7
LA VETA PASS   FAIR      23   5  46 SW30G38     N/A  WCI   5
SAGUACHE       FAIR      19   7  58 NW3       30.39R
$$

COZ035-036-038>040-190700-
...NORTHERN COLORADO FRONT RANGE...

CITY           SKY/WX    TMP DP  RH WIND       PRES   REMARKS
DENVER INTL AP FAIR      30  18  60 SW10      30.21S WCI  21
DMNS CITY PARK   N/A     33  20  59 E9        30.21S WCI  25
AURORA         PTCLDY    30  21  69 S10       30.21F WCI  21
FRONT RANGE AP FAIR      35  19  51 SW12      30.22S WCI  27
ERIE MUNI ARPT FAIR      23  18  80 CALM      30.27S
BOULDER MUN AP FAIR      30  14  51 NE5       30.21R WCI  25
CENTENNIAL     FAIR      29  18  63 S8        30.22R WCI  21
BROOMFIELD     FAIR      36  14  41 E3        30.22R
FORT COLLINS   FAIR      27  19  72 N5        30.22S WCI  22
LONGMONT       FAIR      28  18  67 CALM      30.23S
$$

COZ041-046-047-076>085-087-088-190700-
...PIKES PEAK/PALMER DIVIDE AND SOUTHERN FOOTHILLS...

CITY           SKY/WX    TMP DP  RH WIND       PRES   REMARKS
COLO. SPRINGS  FAIR      24  16  71 N9        30.26F WCI  14
A. F. ACADEMY  FAIR      19  14  82 N7        30.25S WCI  10
SCHRIEVER AFB  FAIR      26  17  67 CALM      30.26F
CHEYENNE MTN   FAIR      30  18  60 CALM      30.19S
ELLICOTT       NOT AVBL
FALCON         FAIR      24  17  73 CALM      30.26F
FORT CARSON    FAIR      26  18  72 NW7       30.24F WCI  18
LIMON          FAIR      18  13  80 CALM      30.25S
MONUMENT HILL  FAIR      27  14  59 SW9       30.25S WCI  17
CANON CITY     FAIR      37  16  41 W16       30.24F
WALSENBURG     FAIR      41  10  28 W13       30.25S
TRINIDAD       FAIR      33  21  61 W13       30.26R WCI  24
$$

COZ042>045-048>051-090-091-190700-
...NORTHEAST COLORADO...

CITY           SKY/WX    TMP DP  RH WIND       PRES   REMARKS
GREELEY ARPT   FAIR      22  17  81 NE3       30.23S
AKRON          FAIR      26  14  60 SE8       30.23F WCI  18
BURLINGTON     FAIR      19  12  74 SW6       30.27F WCI  11
WRAY           NOT AVBL
YUMA           FAIR      21  14  73 S7        30.25F WCI  13
STERLING       FAIR      23  18  80 CALM      30.24S
HOLYOKE        FAIR      28  16  59 W8        30.25S WCI  20
FORT MORGAN    FAIR      27  14  58 NE3       30.24F
$$

COZ086-089-092>099-190700-
...SOUTHEAST COLORADO...

CITY           SKY/WX    TMP DP  RH WIND       PRES   REMARKS
PUEBLO         FAIR      26  21  81 VRB5      30.26R WCI  20
LA JUNTA       FAIR      27  14  58 N5        30.25F WCI  22
LAMAR          FAIR      20  10  65 CALM      30.27S
SPRINGFIELD      N/A     21  16  81 S5        30.27F WCI  15
$$




USA.gov is the U.S. government's official web portal to all federal, state and local government web resources and services.